EW2309 Weather Reports


Display with metric or nautical units.
time (UTC)temp
F
wind
direction
speed
MPH
gust
MPH
rain 1hr
in
rain 24hr
in
rain mn
in
humidity
%
barometer
mb
20260906060020 72 321 0.0 0.0 0.00 0.00 0.00 91 1011.4
20260906054502 72 321 0.0 0.0 0.00 0.00 0.00 91 1011.4
20260906053002 72 321 0.0 0.0 0.00 0.00 0.00 90 1011.0
20260906051644 72 321 0.0 0.0 0.00 0.00 0.00 90 1010.9
20260906050045 73 321 0.0 0.0 0.00 0.00 0.00 89 1011.0
20260906044530 73 321 0.0 0.0 0.00 0.00 0.00 89 1011.3
20260906043025 73 321 0.0 0.0 0.00 0.00 0.00 89 1011.4
20260906041507 73 321 0.0 0.0 0.00 0.00 0.00 88 1011.5
20260906040007 74 321 0.0 0.0 0.00 0.00 0.00 88 1011.4
20260906034600 74 321 0.0 0.0 0.00 0.00 0.00 87 1011.4
20260906033048 74 321 0.0 0.0 0.00 0.00 0.00 87 1011.5
20260906031544 74 321 0.0 0.0 0.00 0.00 0.00 86 1011.7
20260906030031 74 321 0.0 0.0 0.00 0.00 0.00 86 1011.5
20260906024511 74 321 0.0 0.0 0.00 0.00 0.00 86 1011.4
20260906023015 74 321 0.0 0.0 0.00 0.00 0.00 86 1011.0
20260906021603 75 321 0.0 0.0 0.00 0.00 0.00 85 1010.9
20260906020058 75 321 0.0 0.0 0.00 0.00 0.00 85 1010.9
20260906014539 75 321 0.0 0.0 0.00 0.00 0.00 84 1010.8
20260906013039 76 321 0.0 0.0 0.00 0.00 0.00 83 1010.7
20260906011616 77 321 0.0 0.0 0.00 0.00 0.00 82 1010.5
20260906010015 77 321 0.0 0.0 0.00 0.00 0.00 81 1010.3
20260906004603 78 321 0.0 0.0 0.00 0.00 0.00 80 1010.4
20260906003157 79 321 0.0 0.0 0.00 0.00 0.00 80 1010.1
20260906001539 80 321 0.0 0.0 0.00 0.00 0.00 78 1010.0
20260906000039 81 321 0.0 0.0 0.00 0.00 0.00 76 1010.1
20260905234522 82 321 0.0 0.0 0.00 0.00 0.00 74 1010.5
20260905233027 83 298 0.0 0.0 0.00 0.00 0.00 73 1010.4
20260905231505 84 297 0.0 0.0 0.00 0.00 0.00 71 1010.2
20260905230002 84 297 0.0 2.0 0.00 0.00 0.00 71 1009.9
20260905224551 85 297 0.0 1.0 0.00 0.00 0.00 69 1009.9
20260905223045 86 297 0.0 1.0 0.00 0.00 0.00 67 1009.7
20260905221537 87 297 1.0 2.0 0.00 0.00 0.00 66 1009.9
20260905220022 87 63 1.0 3.0 0.00 0.00 0.00 64 1010.2
20260905214505 87 246 1.0 4.0 0.00 0.00 0.00 66 1010.6
20260905213003 88 76 1.0 3.0 0.00 0.00 0.00 66 1010.6
20260905211548 87 159 0.0 1.0 0.00 0.00 0.00 68 1010.5
20260905210103 89 159 0.0 1.0 0.00 0.00 0.00 65 1010.2
20260905204528 89 159 0.0 2.0 0.00 0.00 0.00 62 1010.2
20260905203031 88 216 2.0 6.0 0.00 0.00 0.00 65 1010.2
20260905201506 90 240 0.0 1.0 0.00 0.00 0.00 61 1010.6
20260905200004 90 240 0.0 2.0 0.00 0.00 0.00 61 1010.7
20260905194545 91 220 1.0 4.0 0.00 0.00 0.00 60 1010.9
20260905193045 90 238 2.0 4.0 0.00 0.00 0.00 64 1010.9
20260905191539 91 28 0.0 1.0 0.00 0.00 0.00 64 1010.9
20260905190032 92 28 1.0 4.0 0.00 0.00 0.00 59 1010.9
20260905184535 93 243 0.0 1.0 0.00 0.00 0.00 58 1011.0
20260905183029 95 242 0.0 1.0 0.00 0.00 0.00 54 1011.2
20260905181527 94 170 0.0 4.0 0.00 0.00 0.00 57 1011.4
20260905180028 95 78 1.0 3.0 0.00 0.00 0.00 55 1011.5
20260905174521 94 55 0.0 3.0 0.00 0.00 0.00 55 1011.7
20260905173019 93 67 1.0 4.0 0.00 0.00 0.00 59 1011.8
20260905171606 93 32 1.0 3.0 0.00 0.00 0.00 60 1012.0
20260905170058 91 106 0.0 5.0 0.00 0.00 0.00 60 1012.0
20260905164538 90 80 1.0 2.0 0.00 0.00 0.00 60 1012.3
20260905163031 90 52 0.0 3.0 0.00 0.00 0.00 66 1012.6
20260905161512 88 42 1.0 3.0 0.00 0.00 0.00 71 1012.7
20260905160015 87 41 0.0 2.0 0.00 0.00 0.00 72 1012.9
20260905154604 86 42 1.0 3.0 0.00 0.00 0.00 76 1012.8
20260905153043 84 40 0.0 2.0 0.00 0.00 0.00 77 1012.9
20260905151540 83 40 0.0 4.0 0.00 0.00 0.00 80 1013.0
20260905150018 82 39 0.0 2.0 0.00 0.00 0.00 81 1013.0
20260905144521 81 40 0.0 2.0 0.00 0.00 0.00 86 1013.2
20260905143055 79 40 0.0 3.0 0.00 0.00 0.00 87 1013.1
20260905141551 78 319 0.0 0.0 0.00 0.00 0.00 93 1013.3
20260905140039 76 319 0.0 0.0 0.00 0.00 0.00 94 1013.3
20260905134534 76 319 0.0 0.0 0.00 0.00 0.00 96 1013.3
20260905133032 75 319 0.0 0.0 0.00 0.00 0.00 97 1013.4
20260905131530 75 319 0.0 0.0 0.00 0.00 0.00 97 1013.5
20260905130027 74 319 0.0 0.0 0.00 0.00 0.00 97 1013.6
20260905124532 74 319 0.0 0.0 0.00 0.00 0.00 96 1013.6
20260905123022 73 319 0.0 0.0 0.00 0.00 0.00 96 1013.5
20260905121520 73 319 0.0 0.0 0.00 0.00 0.00 96 1013.5
20260905120018 73 319 0.0 0.0 0.00 0.00 0.00 95 1013.3
20260905114514 73 319 0.0 0.0 0.00 0.00 0.00 94 1013.1
20260905113058 72 319 0.0 0.0 0.00 0.00 0.00 94 1013.0
20260905111607 73 319 0.0 0.0 0.00 0.00 0.00 94 1012.8
20260905110035 73 319 0.0 0.0 0.00 0.00 0.00 94 1012.5
20260905104541 73 319 0.0 0.0 0.00 0.00 0.00 93 1012.4
20260905103014 73 319 0.0 0.0 0.00 0.00 0.00 92 1012.5
20260905101512 73 319 0.0 0.0 0.00 0.00 0.00 92 1012.4
20260905100106 73 319 0.0 0.0 0.00 0.00 0.00 92 1012.2
20260905094608 73 319 0.0 0.0 0.00 0.00 0.00 92 1012.1
20260905093059 73 319 0.0 0.0 0.00 0.00 0.00 92 1012.0
20260905091607 74 319 0.0 0.0 0.00 0.00 0.00 92 1012.0
20260905090057 74 319 0.0 0.0 0.00 0.00 0.00 92 1012.0
20260905084556 74 319 0.0 0.0 0.00 0.00 0.00 91 1012.1
20260905083055 74 319 0.0 0.0 0.00 0.00 0.00 91 1012.0
20260905081603 74 319 0.0 1.0 0.00 0.00 0.00 91 1012.0
20260905080050 74 319 0.0 0.0 0.00 0.00 0.00 90 1012.0
20260905074537 75 319 0.0 0.0 0.00 0.00 0.00 90 1011.9
20260905073033 75 319 0.0 1.0 0.00 0.00 0.00 89 1011.8
20260905071517 75 319 0.0 0.0 0.00 0.00 0.00 89 1011.9
20260905070006 75 319 0.0 1.0 0.00 0.00 0.00 88 1012.0
20260905064509 76 319 0.0 1.0 0.00 0.00 0.00 87 1012.2
20260905063004 76 319 0.0 0.0 0.00 0.00 0.00 87 1012.2
20260905061505 76 319 0.0 0.0 0.00 0.00 0.00 87 1012.3